This is the latest recevied weather packets stored in our database for station/object DL9LAF-4. If no packets are shown the sender has not sent any weather packets the latest 10 day(s).
| Time | Temp. | Humidity | Pressure | Rain* | Wind** | Luminosity | Snow |
|---|---|---|---|---|---|---|---|
| 1777676154 | 13.33° C | 57% | 999.5 hPa | 0 mm | - | - | - |
| 1777675554 | 13.33° C | 57% | 999.5 hPa | 0 mm | - | - | - |
| 1777674954 | 13.33° C | 56% | 999.7 hPa | 0 mm | - | - | - |
| 1777674376 | 13.33° C | 56% | 999.5 hPa | 0 mm | - | - | - |
| 1777673754 | 13.33° C | 56% | 999.7 hPa | 0 mm | - | - | - |
| 1777673154 | 13.89° C | 56% | 999.7 hPa | 0 mm | - | - | - |
| 1777672554 | 13.89° C | 56% | 999.7 hPa | 0 mm | - | - | - |
| 1777671954 | 13.89° C | 56% | 999.9 hPa | 0 mm | - | - | - |
| 1777671354 | 13.89° C | 55% | 999.7 hPa | 0 mm | - | - | - |
| 1777670754 | 14.44° C | 55% | 999.9 hPa | 0 mm | - | - | - |
| 1777670154 | 14.44° C | 55% | 999.7 hPa | 0 mm | - | - | - |
| 1777669554 | 15° C | 54% | 999.9 hPa | 0 mm | - | - | - |
| 1777668954 | 15° C | 53% | 1000 hPa | 0 mm | - | - | - |
| 1777668354 | 15.56° C | 52% | 1000 hPa | 0 mm | - | - | - |
| 1777667754 | 15.56° C | 51% | 1000 hPa | 0 mm | - | - | - |
| 1777667154 | 16.11° C | 51% | 1000.2 hPa | 0 mm | - | - | - |
| 1777666554 | 16.11° C | 50% | 1000.2 hPa | 0 mm | - | - | - |
| 1777665954 | 16.67° C | 49% | 1000.2 hPa | 0 mm | - | - | - |
| 1777665354 | 16.67° C | 49% | 1000.2 hPa | 0 mm | - | - | - |
| 1777664754 | 17.22° C | 48% | 1000.2 hPa | 0 mm | - | - | - |
| 1777664154 | 17.78° C | 47% | 1000.2 hPa | 0 mm | - | - | - |
| 1777663554 | 17.78° C | 46% | 1000.2 hPa | 0 mm | - | - | - |
| 1777662954 | 18.89° C | 44% | 1000.2 hPa | 0 mm | - | - | - |
| 1777662354 | 19.44° C | 43% | 1000.4 hPa | 0 mm | - | - | - |
| 1777661754 | 20° C | 42% | 1000.2 hPa | 0 mm | - | - | - |
* Rain latest hour (hover to see other rain measurements)
** Current wind speed in m/s (hover to see current wind gust speed)